Погода Илыинский

Погода Илыинский : погода сейчас, прогноз погоды и архив. Всё, что Вы хотите узнать о погоде Илыинский!

Хотите узнать прогноз погоды Илыинский? Тогда Вам сюда: Погода Илыинский

Поиск расширенной информации на нашем сайте:

Другие новости

Новости СМИ2

Главная страница сайта

Новости сайта

03.07.2017

Напоминаем, что на нашем специализированном сайте Метеоцентр.Азия вы можете получить высокодетализированные автоматические прогнозы погоды по пунктам России, СНГ и мира в авиационном формате (включающие направление и скорость ветра, видимость, явления погоды, количество и форму облачности, нижнюю и верхнюю границу облачности).

Рекомендуем: Проверенные лично мной дженерики виагры. Доставка виагры в день заказа.

Погода Илыинский - сегодня

Время (UTC), дата Ветер
(°,м/с) 
Видим.   Явления Облачность Т
(°С)
Тd
(°С)
f(%) Тe
(°С)
Pmin
(гПа)
dP
(гПа)
Po
(мм)
O2
(г/м3)
Тmin Tmax R s Состояние
почвы
21 16.08.17 090 (В) 4-6{06}  20000 м    9/0 средняя 
[Ac trans]
+15.2 +12.4 83 +19  1016  0.1  760  288  +14.1        сухая 
00 17.08.17 090 (В) 3-5{06}  20000 м    10/10 600 м кучево-дожд. 
[Cb cap]
+17.6 +13.4 76 +24  1016.1  0.1  760  285           
03 17.08.17 250 (З) 2-3{05}  20000 м    10/9 600 м кучево-дожд., верхняя 
[Cb cap|Ci ing]
+17.9 +14.8 82 +27  1015.6  -0.5  760  284           
06 17.08.17 тихо () {03}  20000 м    10/10 600 м кучево-дожд. 
[Cb cap]
+18 +14.3 79 +25  1014.8  -0.5  759  284           
09 17.08.17 090 (В) 3-4{04}  20000 м    10/10 600 м кучево-дожд. 
[Cb cap]
+17 +13.8 81 +23  1014.7  759  285    +19.3       
12 17.08.17 070 (В) 3-5{06}  10 км    8/8 600 м кучево-дожд. 
[Cb cap]
+15.6 +13.9 90 +23  1014.9  0.1  760  287           
15 17.08.17 140 (ЮВ) 1-3{05}  10 км    10/10 600 м кучево-дожд. 
[Cb cap]
+14.5 +13.7 95 +22  1014.2  -0.7  759  288           
18 17.08.17 тихо () -2{05}  10 км    10/10 600 м кучево-дожд. 
[Cb cap]
+14.5 +13.5 94 +20  1013.9  -0.3  759  288           
21 17.08.17 тихо () {02}  20000 м    9/9 600 м кучево-дожд. 
[Cb cap]
+15.7 +14.5 93 +23  1014.2  -0.3  759  286  +14.1        сухая 
00 18.08.17 280 (З) 2-3{04}  20000 м  {ливн. осадки}  10/10 600 м кучево-дожд. 
[Cb cap]
+18.4 +15.6 84 +28  1014.7  0.5  759  283           
03 18.08.17 290 (З) 3-5{06}  20000 м    8/6 600 м кучево-дожд., верхняя 
[Cb cap|Ci sp]
+20.6 +15.2 71 +29  1013.9  -0.8  759  281           
06 18.08.17 320 (СЗ) 4-5{07}  20000 м    8/6 600 м кучево-дожд., верхняя 
[Cb cap|Ci sp]
+19.2 +16.1 82 +30  1013.6  -0.3  759  282           
09 18.08.17 320 (СЗ) 3-4{06}  20000 м    4/4 600 м кучево-дожд. 
[Cb cap]
+18 +15.5 85 +28  1014  0.4  759  284    +20.8  0.0     
12 18.08.17 070 (В) 1-2{04}  10 км    3/3 600 м кучево-дожд. 
[Cb cap]
+15.6 +14.5 93 +24  1014.9  0.9  760  287           
15 18.08.17 тихо () {02}  10 км    ясно 
+13.1 +12.5 96 +17  1014.9  760  290           
18 18.08.17 тихо () {04}  10 км    ясно 
+12.6 +11.9 95 +16  1015.1  0.2  760  290           
21 18.08.17 100 (В) 2-4{03}  20000 м    8/3 600 м кучево-дожд., средняя 
[Cb cap|Ac As]
+14.8 +14.4 97 +22  1015.4  0.3  760  287  +11.9        сухая 
00 19.08.17 110 (В) 3-5{06}  20000 м    9/1 1000 м средняя 
[Cu med, cong|Ac trans]
+20.4 +14.8 70 +28  1015.6  0.2  760  282           
03 19.08.17 270 (З) 2-3{05}  20000 м    8/4 600 м кучево-дожд., средняя 
[Cb cap|Ac cast]
+19.9 +15.5 76 +30  1015.2  0.2  760  282           
06 19.08.17 260 (З) 2-3{04}  20000 м    9/6 600 м кучево-дожд., средняя 
[Cb cap|Ac trans]
+20 +16.4 80 +31  1014.7  -0.5  759  282           
09 19.08.17 100 (В) 5-7{08}  20000 м    1/0 средняя 
[Ac trans]
+17.7 +14.3 80 +25  1014.9  -0.1  760  284    +21.9       
12 19.08.17 080 (В) 4-6{08}  10 км    6/0 средняя 
[Ac trans]
+15.8 +14 89 +23  1015.8  0.9  760  287           
15 19.08.17 100 (В) 3-4{07}  10 км    ясно 
+15.2 +14 93 +22  1015.6  0.1  760  287           
18 19.08.17 090 (В) 4-6{07}  10 км    9/4 600 м кучево-дожд., средняя 
[Cb cap|Ac trans]
+15.9 +14.3 90 +23  1014.9  -0.7  760  286           
21 19.08.17 100 (В) 3-4{06}  20000 м    10/0 средняя, верхняя 
[Ac trans|Ci sp]
+15.8 +14.4 91 +23  1015.2  0.3  760  286  +15.1        сухая 
Время (UTC), дата Ветер
(°,м/с) 
Видим.   Явления Облачность Т
(°С)
Тd
(°С)
f(%) Тe
(°С)
Pmin
(гПа)
dP
(гПа)
Po
(мм)
O2
(г/м3)
Тmin Tmax R s Состояние
почвы

Для получения пояснительной информации подведите курсор к названию столбца.

ПОГОДА Илыинский - архив

Всё, что Вы хотите узнать о погоде Илыинский - удобно и подробно!

Выберите нужную дату (начиная с 1 января 2015* года) и нажмите кнопку "Найти".
Будут отображены архивные сводки погоды по пункту Илыинский, начиная с указанной даты.


Отображать данные в формате CSV (для использования в таблицах Excel)


Внимание! Наш архив погоды предназначен исключительно для личного некоммерческого использования в познавательных целях. Если Вам необходимы официальные справки о состоянии погоды (для производственных, юридических, коммерческих и т.п. целей), обращайтесь в органы Росгидромета.

*Примечание: данная дата относится к архиву по метеостанциям СССР (Россия, СНГ, Балтия).
Архив по метеостанциям Зарубежной Европы и Азии (кроме Китая) хранится 10 дней, по другим регионам земного шара (Китай, Африка, Америка, Австралия, Океания) - 1 день.

Илыинский - район местоположения метеостанции


Название, широта, долгота, высота метеостанции:
Илыинский 48°ш. 142.2°д. 18 м над ур. моря [Российская Федерация]

Дополнительная информация

В oтличие oт бoльшинства пoгoдных сайтoв мы публикуем пoдрoбную метеoинфoрмацию в детальнoм прoфессиoнальнoм фoрмате.

Характеристики температуры и влажнoсти вoздуха измеряются на высoте 2 м в тени вдали oт зданий и деревьев.
Скoрoсть ветра измеряется на высoте 10 м (на урoвне рoста челoвека скoрoсть ветра ниже в 1.5-2 раза). Если метеoстанция нахoдится в гoрoде или в лесу, тo скoрoсть ветра занижена на 2-4 м/с пo сравнению с oткрытым местoм. Скoрoсть ветра над акватoриями крупных рек и oзёр, а также на вершинах хoлмoв на 2-5 м/с выше, чем в oбычных услoвиях.
Атмoсфернoе давление в разных тoчках местнoсти мoжет значительнo oтличаться oт давления на метеoстанции, в зависимoсти oт услoвий рельефа (при пoдъёме на 10 м давление пoнижается примернo на 1 мм рт.ст.).